Location: NovaLab Observatory
(42.8167°N, 71.2500°W)
Time: 05:56:14
(UTC-04:00)

Daily predictions for brighter satellites

Satellite Brightness Start Highest point End
(mag) Time Altitude Azimuth Time Altitude Azimuth Time Altitude Azimuth
Gbstr 26 Del rocket 4.4 00:12:09 77° E 00:12:09 77° E 00:19:32 10° ENE
Cosmos 2315 Rocket 4.3 00:13:51 60° NW 00:13:51 60° NW 00:19:15 10° N
Cosmos 2333 Rocket 3.9 00:21:21 25° WNW 00:22:34 27° NW 00:27:28 10° N
Cosmos 2237 Rocket 3.5 00:26:24 32° WNW 00:26:41 32° NW 00:31:47 10° N
ATLAS CENTAUR R/B 4.1 00:31:52 16° NNE 00:31:52 16° NNE 00:32:41 10° NNE
Cosmos 2278 Rocket 4.1 00:25:14 10° NW 00:27:48 20° WNW 00:27:48 20° WNW
ATLAS 2AS CENTAUR R/B 3.1 00:32:49 67° E 00:32:49 67° E 00:40:08 10° NE
CZ-2C R/B 3.5 00:36:13 10° N 00:40:15 48° NNW 00:40:15 48° NNW
Cosmos 2184 Rocket 4.4 00:39:57 10° N 00:45:12 62° NNW 00:45:12 62° NNW
ATLAS 3B R/B 2.8 01:00:18 10° NW 01:06:04 66° NNW 01:06:04 66° NNW
Cosmos 2341 Rocket 4.4 01:03:07 10° N 01:08:32 59° NE 01:08:32 59° NE
Cosmos 1603 4.4 01:22:28 52° N 01:22:28 52° N 01:26:56 10° NNE
USA 238 DEB 3.7 01:17:03 10° NW 01:23:51 81° N 01:23:51 81° N
USA 238 3.7 01:17:09 10° NW 01:24:00 81° NNE 01:24:00 81° NNE
Cosmos 2154 Rocket 4.3 01:19:05 10° NNW 01:24:12 59° NW 01:24:12 59° NW
Cosmos 2369 Rocket 2.9 01:22:08 10° NNW 01:26:15 50° N 01:26:15 50° N
USA 215 3.2 01:33:35 10° NE 01:39:38 75° E 01:39:38 75° E
COSMOS 2455 4.5 01:36:03 10° NNW 01:41:18 30° NE 01:46:08 12° ESE
Cosmos 1943 Rocket 2.7 01:41:16 10° NNW 01:46:26 56° NE 01:46:26 56° NE
SL-16 R/B 4.1 01:46:55 18° WNW 01:47:51 19° NW 01:51:50 10° N
NOSS 3-2 (C) 4.4 01:48:16 10° NNW 01:55:38 60° NE 02:03:07 12° SE
ATLAS CENTAUR R/B 4.2 02:08:06 11° NW 02:08:17 11° NW 02:09:24 10° NNW
Cosmos 2181 Rocket 4.3 02:08:48 58° WNW 02:08:48 58° WNW 02:14:52 10° N
SL-16 R/B 3.9 02:06:35 18° ESE 02:10:22 34° ENE 02:15:49 10° N
Cosmos 2218 Rocket 3.9 02:04:54 10° N 02:10:48 79° NW 02:10:48 79° NW
USA 267 3.7 02:06:25 10° ESE 02:12:48 59° NNE 02:19:12 10° NW
Cosmos 2366 rocket 3.9 02:08:40 10° N 02:14:57 87° WNW 02:14:57 87° WNW
Cosmos 923 Rocket 4.5 02:15:47 56° ENE 02:15:47 56° ENE 02:20:27 10° NNE
NOSS 3-4 (A) 3.4 02:22:20 71° SE 02:22:27 71° ESE 02:28:55 10° NE
NOSS 3-4 (C) 3.5 02:22:26 70° SE 02:22:33 70° ESE 02:29:01 10° NE
Meteor 2-21 4.3 02:16:48 10° N 02:22:52 83° WNW 02:22:52 83° WNW
ATLAS 2AS CENTAUR R/B 4.1 02:20:12 25° W 02:23:46 36° NW 02:31:09 10° NNE
Cosmos 864 Rocket 4.4 02:18:50 10° N 02:25:10 79° W 02:25:13 79° W
SL-8 Rocket 4.3 02:21:05 10° NNW 02:26:20 50° WNW 02:26:20 50° WNW
Cosmos 1656 Rocket 4.1 02:23:58 10° NNW 02:29:19 57° ENE 02:30:32 46° ESE
Cosmos 1602 Rocket 4.3 02:32:50 52° NNE 02:32:50 52° NNE 02:36:19 10° NNE
IRS-P3 4.0 02:29:31 10° NNE 02:34:45 83° ENE 02:34:45 83° ENE
NOSS 3-2 (A) 3.9 02:29:11 10° NW 02:36:42 72° WSW 02:38:59 50° S
Cosmos 773 Rocket 4.4 02:40:19 52° NW 02:40:19 52° NW 02:44:58 10° NNE
Cosmos 1943 4.2 02:43:07 33° WNW 02:43:26 33° NW 02:48:31 10° N
UNK 4.3 02:48:48 47° ESE 02:49:32 53° ENE 02:54:00 10° N
Cosmos 2112 Rocket 3.9 02:50:18 79° SE 02:50:28 81° ESE 02:55:46 10° NNE
Aureole 1 Rocket 3.3 02:51:19 80° NNW 02:51:19 80° NNW 02:55:30 10° NNE
Nadezhda 3 Rocket 3.9 03:01:16 58° SSW 03:02:37 82° W 03:09:00 10° N
NPP 3.7 02:57:28 10° N 03:02:47 61° WNW 03:03:10 59° W
Cosmos 1624 Rocket 4.5 03:00:25 10° NNW 03:05:35 58° ENE 03:09:23 18° SE
Lacrosse 5 rocket 2.6 03:05:58 34° SE 03:06:01 34° SE 03:10:16 10° ENE
Resurs 1-4 Rocket 2.3 03:01:57 10° NNE 03:07:12 65° ESE 03:08:31 48° SSE
ERS-1 4.4 03:05:56 10° NNE 03:10:55 82° ESE 03:11:43 63° S
Cosmos 2369 Rocket 4.5 03:07:59 10° WNW 03:08:01 10° WNW 03:08:01 10° WNW
SL-08 R/B 4.1 03:12:21 36° WNW 03:12:21 36° WNW 03:15:46 10° NNW
Spot 4 Rocket 4.0 03:07:11 10° NNE 03:12:24 84° ESE 03:13:23 59° S
Cosmos 1544 3.6 03:10:04 10° N 03:13:06 56° N 03:13:06 56° N
Cosmos 1805 3.4 03:09:53 10° N 03:13:40 72° ENE 03:13:40 72° ENE
Cosmos 1271 Rocket 3.2 03:10:20 10° N 03:14:02 55° ENE 03:14:12 54° E
Cosmos 1758 Rocket 4.3 03:13:55 39° SE 03:14:57 47° E 03:19:08 10° NNE
USA 32 4.4 03:14:02 37° SSE 03:16:00 62° E 03:21:11 10° NNE
CZ-2D R/B 2.1 03:12:08 10° NNE 03:17:28 79° ESE 03:18:55 49° S
USA 161 4.0 03:17:36 17° E 03:18:37 21° ENE 03:20:53 10° NNE
Cosmos 2056 Rocket 3.7 03:13:40 10° NNW 03:19:01 71° ENE 03:23:16 16° SSE
Cosmos 1812 Rocket 4.4 03:16:41 10° NNW 03:19:57 38° WNW 03:19:57 38° WNW
Cosmos 921 Rocket 3.6 03:18:06 10° N 03:22:34 59° ENE 03:25:38 19° SE
USA 215 4.2 03:16:51 10° NE 03:22:50 40° NNW 03:26:59 19° W
Cosmos 1680 Rocket 3.9 03:23:12 43° W 03:23:54 45° WNW 03:28:58 10° N
RESURS DK-1 2.6 03:25:43 55° WNW 03:25:43 55° WNW 03:29:45 10° NNE
COSMOS 2455 2.9 03:21:40 10° NW 03:27:32 54° WSW 03:29:08 42° SSW
Cosmos 1842 3.6 03:28:16 53° NW 03:28:16 53° NW 03:31:41 10° N
ADEOS 3.5 03:24:23 10° NNE 03:29:38 81° WNW 03:31:11 47° SSW
Cosmos 1943 Rocket 3.9 03:26:03 10° NW 03:27:55 17° WNW 03:27:55 17° WNW
Cosmos 2082 Rocket 4.4 03:27:48 10° SE 03:31:50 20° E 03:35:52 10° NE
Meteor 1-4 Rocket 4.4 03:30:04 10° NNW 03:31:49 22° NW 03:31:49 22° NW
Cosmos 1953 Rocket 3.5 03:35:11 49° S 03:36:21 86° E 03:40:50 10° N
IRS-1D 3.6 03:31:35 10° N 03:36:46 68° WNW 03:38:24 43° SW
COSMOS 2406 3.4 03:35:40 41° WSW 03:37:27 60° WNW 03:43:10 10° NNE
NOSS 2-2 (E) 3.5 03:36:50 55° S 03:37:40 74° ESE 03:42:22 10° NE
SL-27 R/B 2.8 03:43:36 50° WNW 03:43:36 50° WNW 03:47:03 10° N
MOZ.5/SAFIR/RUBIN 5/SL-8 3.8 03:40:23 16° SSE 03:44:04 78° ENE 03:48:45 10° N
NOSS 3-2 (C) 4.5 03:39:38 10° NW 03:46:26 36° WSW 03:50:12 24° SSW
ARIANE 5 R/B 2.7 03:42:48 10° N 03:47:56 57° WNW 03:49:48 37° SW
Cosmos 1821 Rocket 4.1 03:42:43 10° NNW 03:48:37 51° W 03:51:18 30° SSW
CZ-2D R/B 3.5 03:44:40 10° NNE 03:48:45 72° ESE 03:50:23 34° S
COBE Rocket 4.0 03:46:07 10° N 03:51:08 64° WNW 03:53:04 36° SW
SL-16 R/B 2.9 03:51:39 31° SW 03:53:52 41° W 03:59:41 10° NNW
Cosmos 1452 Rocket 4.0 03:48:49 10° NNW 03:54:03 60° ENE 03:59:12 10° SSE
Cosmos 1371 Rocket 4.4 03:49:34 10° NNW 03:54:38 43° WSW 03:56:34 31° SSW
Cosmos 1707 3.3 03:52:33 22° SSE 03:54:47 54° E 03:58:36 10° NNE
USA 267 3.4 03:49:41 10° SSE 03:55:54 46° SW 04:02:09 10° WNW
ADEOS Rocket 3.3 03:50:45 10° N 03:56:34 55° WNW 04:00:02 27° SW
CENTAUR R/B 3.0 03:49:47 10° NW 03:57:42 77° WSW 04:06:07 10° SSE
Cosmos 1825 Rocket 4.2 03:58:07 35° WSW 03:58:59 38° WNW 04:03:07 10° N
Cosmos 1470 2.6 03:57:19 10° N 04:01:14 84° W 04:03:45 21° S
Cosmos 1953 2.8 03:58:40 10° NNW 04:02:25 40° W 04:02:57 38° WSW
GEOS 3 Rocket 4.2 03:58:05 10° NNE 04:03:09 48° NW 04:05:55 25° WSW
Cosmos 1605 Rocket 3.9 04:03:07 10° NNW 04:09:16 66° W 04:15:19 10° S
Cosmos 1818 3.5 04:07:00 27° SW 04:10:02 80° WNW 04:15:32 10° NNE
Cosmos 1934 Rocket 4.4 04:04:44 10° NNW 04:10:40 45° W 04:14:55 19° SSW
COSMOS 2487 2.9 04:09:56 23° S 04:11:58 60° ESE 04:15:30 10° NNE
Okean O Rocket 2.9 04:08:24 10° NNE 04:12:34 39° E 04:16:42 10° SSE
ADEOS II 3.2 04:08:19 10° NNE 04:13:19 42° E 04:18:16 10° SSE
NOSS 2-2 (D) 3.7 04:11:50 30° WSW 04:13:41 60° NW 04:18:22 10° NNE
UNKNOWN OBJECT B 3.2 04:10:35 10° N 04:14:25 46° WNW 04:16:05 29° SW
Cosmos 1378 3.5 04:11:25 14° S 04:14:29 62° E 04:18:11 10° NNE
Cosmos 839 Rocket 4.1 04:09:00 10° NW 04:15:19 72° WSW 04:22:46 10° SSE
Cosmos 1339 Rocket 4.4 04:10:43 14° S 04:16:05 81° W 04:22:14 10° N
Geosat FO 4.5 04:27:24 10° SSE 04:30:58 76° WSW 04:34:38 10° NNW
NOSS 2-2 (C) 4.3 04:29:42 20° WSW 04:32:11 42° NW 04:36:45 10° NNE
Tiangong 1 1.0 04:33:00 26° WSW 04:34:15 47° SSW 04:36:59 10° ESE
PSLV R/B 3.9 04:31:03 10° NNE 04:35:11 88° ESE 04:39:20 10° SSW
Abrixas 4.4 04:34:23 10° NW 04:36:46 24° N 04:39:09 10° ENE
Cosmos 1733 4.1 04:35:55 10° NNW 04:39:11 28° W 04:41:23 16° SW
Cosmos 2100 Rocket 4.0 04:34:12 10° N 04:40:26 87° W 04:46:35 10° S
Cosmos 2098 Rocket 3.4 04:38:40 10° NW 04:41:03 22° W 04:41:45 20° WSW
Cosmos 1697 Rocket 3.2 04:37:15 10° NNW 04:42:51 66° ENE 04:48:24 10° SE
Lacrosse 5 rocket 2.4 04:41:40 15° WSW 04:45:16 43° NW 04:49:42 10° NE
MOS 1 Rocket 3.7 04:41:50 10° N 04:45:52 39° WNW 04:49:34 12° SW
Resurs 1-4 Rocket 3.7 04:43:04 10° NNW 04:46:31 18° WNW 04:49:36 11° W
Cosmos 389 Rocket 3.7 04:43:45 10° NW 04:46:44 24° W 04:49:03 13° SW
Cosmos 2278 3.8 04:41:27 10° NNW 04:47:05 58° WSW 04:52:38 10° S
Delta 2 Rocket 4.2 04:45:43 16° SW 04:47:17 22° S 04:49:59 10° SE
Cosmos 2173 Rocket 4.0 04:41:25 10° N 04:47:45 84° W 04:53:56 10° S
USA 161 3.3 04:48:14 15° W 04:48:25 15° W 04:50:17 10° NW
Cosmos 1842 Rocket 3.6 04:45:46 10° NNW 04:50:08 61° W 04:54:29 10° S
Cosmos-2242 4.1 04:47:49 10° NNW 04:51:28 26° W 04:55:05 10° SW
CZ-4B R/B 3.1 04:48:14 10° N 04:52:32 76° WNW 04:56:58 10° SSW
Cosmos 2369 3.9 04:49:00 10° NW 04:54:33 51° WSW 05:00:04 10° S
CZ-2D R/B 3.9 04:53:54 10° NNW 04:56:51 15° WNW 04:59:47 10° W
PSLV R/B 3.6 04:53:36 10° NNE 04:58:01 87° W 05:02:20 10° SSW
Meteor 2-5 Rocket 4.1 04:53:26 10° SSW 04:58:54 48° WNW 05:04:32 10° N
EO 1 Del DPAF 3.2 04:55:50 10° SSE 04:59:41 85° W 05:03:34 10° NNW
MTI 3.7 04:58:59 10° S 05:02:13 81° WSW 05:05:29 10° NNW
Cosmos 2061 Rocket 4.0 04:58:50 10° NNW 05:05:01 67° W 05:11:08 10° S
Cosmos 2221 2.5 05:06:50 10° N 05:11:09 89° E 05:15:25 10° S
Cosmos 2082 Rocket 2.4 05:09:45 10° SW 05:15:24 61° WNW 05:21:04 10° NNE
Cosmos 1980 Rocket 2.6 05:10:49 10° NNW 05:16:32 73° ENE 05:22:11 10° SSE
Cosmos 1833 Rocket 2.8 05:11:03 10° SW 05:16:36 64° WNW 05:22:12 10° NNE
Cosmos 1674 3.7 05:13:19 10° S 05:16:58 49° E 05:20:40 10° NNE
Meteor 2-1 Rocket 4.3 05:12:09 10° NNW 05:17:42 60° W 05:23:21 10° S
Cosmos 1656 3.9 05:14:53 10° NW 05:20:00 44° WSW 05:25:07 10° S
CZ-4B R/B 3.3 05:16:26 10° N 05:21:43 58° WNW 05:26:53 10° SSW
PAYLOAD B 4.5 05:16:24 10° N 05:21:49 53° WNW 05:27:11 10° SW
Cosmos 158 Rocket 4.1 05:17:16 10° SW 05:22:11 58° WNW 05:27:17 10° NNE
